KS8S Weather Reports


time (UTC)temp
F
wind
direction
speed
knots
gust
knots
rain 1hr
in
rain 24hr
in
rain mn
in
humidity
%
barometer
mb
20260503220024 56 246 17.4 26.9 0.00 0.00 0.00 58 1012.2
20260503214518 57 246 23.5 31.3 0.00 0.00 0.00 52 1012.1
20260503213018 59 217 18.2 25.2 0.00 0.00 0.00 40 1011.9
20260503211516 60 239 17.4 23.5 0.00 0.00 0.00 41 1012.0
20260503210028 60 238 16.5 26.1 0.00 0.00 0.00 40 1012.1
20260503204510 60 223 16.5 23.5 0.00 0.00 0.00 38 1012.2
20260503203004 61 238 16.5 25.2 0.00 0.00 0.00 39 1012.3
20260503201523 61 243 16.5 22.6 0.00 0.00 0.00 39 1012.5
20260503200020 61 222 20.0 26.1 0.00 0.00 0.00 36 1012.9
20260503194516 61 235 18.2 25.2 0.00 0.00 0.00 36 1012.9
20260503193013 60 238 16.5 20.9 0.00 0.00 0.00 37 1013.2
20260503191510 61 234 17.4 23.5 0.00 0.00 0.00 36 1013.3
20260503190009 60 230 19.1 25.2 0.00 0.00 0.00 36 1013.6
20260503184535 61 229 17.4 24.3 0.00 0.00 0.00 37 1013.7
20260503183024 61 243 19.1 22.6 0.00 0.00 0.00 39 1013.9
20260503181522 60 238 17.4 25.2 0.00 0.00 0.00 37 1014.0
20260503180024 60 225 18.2 27.8 0.00 0.00 0.00 36 1014.4
20260503174515 60 246 19.1 25.2 0.00 0.00 0.00 39 1014.4
20260503173015 60 249 16.5 24.3 0.00 0.00 0.00 42 1014.7
20260503171524 60 217 20.0 26.1 0.00 0.00 0.00 38 1014.9
20260503081527 33 240 0.9 1.7 0.00 0.00 0.00 82 1016.6
20260503071519 33 240 1.7 1.7 0.00 0.00 0.00 81 1016.8
20260503054526 35 240 1.7 2.6 0.00 0.00 0.00 79 1017.2
20260503053036 35 240 1.7 2.6 0.00 0.00 0.00 79 1017.2
20260503051525 36 240 2.6 2.6 0.00 0.00 0.00 78 1017.3
20260503050021 36 240 1.7 1.7 0.00 0.00 0.00 78 1017.3
20260503044529 36 240 1.7 1.7 0.00 0.00 0.00 77 1017.4
20260503043028 36 240 1.7 1.7 0.00 0.00 0.00 78 1017.3
20260503041528 36 240 0.9 0.9 0.00 0.00 0.00 78 1017.3
20260503040030 36 240 0.9 1.7 0.00 0.00 0.00 76 1017.3
20260503034538 37 240 1.7 1.7 0.00 0.00 0.00 77 1017.4
20260503033007 38 240 0.9 1.7 0.00 0.00 0.00 76 1017.4
20260503031503 38 235 2.6 2.6 0.00 0.00 0.00 77 1017.4
20260503030022 38 209 1.7 2.6 0.00 0.00 0.00 80 1017.4
20260503024520 38 209 1.7 2.6 0.00 0.00 0.00 81 1017.5
20260503023014 39 209 2.6 2.6 0.00 0.00 0.00 79 1017.5
20260503021513 41 209 2.6 3.5 0.00 0.00 0.00 76 1017.5
20260503020009 41 209 2.6 3.5 0.00 0.00 0.00 76 1017.4
20260503014531 42 263 1.7 2.6 0.00 0.00 0.00 76 1017.3
20260503013018 42 263 1.7 2.6 0.00 0.00 0.00 76 1017.2
20260503011511 42 263 1.7 2.6 0.00 0.00 0.00 76 1017.3
20260503010010 42 263 0.9 1.7 0.00 0.00 0.00 76 1017.2
20260503004510 44 263 1.7 2.6 0.00 0.00 0.00 72 1017.1
20260503003024 45 263 1.7 2.6 0.00 0.00 0.00 68 1017.1
20260503001524 45 263 1.7 1.7 0.00 0.00 0.00 59 1017.1
20260503000018 46 263 0.9 1.7 0.00 0.02 0.00 50 1017.1
20260502234515 46 267 1.7 4.3 0.00 0.02 0.00 49 1017.0
20260502233015 47 284 2.6 6.1 0.00 0.02 0.00 47 1017.0
20260502231519 47 275 5.2 8.7 0.00 0.02 0.00 44 1017.1
20260502230011 47 282 4.3 7.8 0.00 0.02 0.00 42 1017.2
20260502224524 48 284 6.1 9.6 0.00 0.02 0.00 45 1017.2
20260502223024 48 298 5.2 10.4 0.00 0.02 0.00 44 1017.2
20260502221521 48 285 8.7 10.4 0.00 0.02 0.00 42 1017.3